Weather History for Calgary Springbank, AB

Change the Weather History Date:

Thursday, April 12, 2012

  Actual Average Record
Temperature  
Mean Temperature 38 °F -  
Max Temperature 47 °F 50 °F 68 °F (2004)
Min Temperature 30 °F 28 °F 12 °F (1997)
Degree Days  
Heating Degree Days 26    
Moisture  
Dew Point 28 °F    
Average Humidity 77    
Maximum Humidity 93    
Minimum Humidity 38    
Precipitation  
Precipitation 0.71 in - - ()
Sea Level Pressure  
Sea Level Pressure 29.62 in    
Wind  
Wind Speed 8 mph ()    
Max Wind Speed 13 mph    
Max Gust Speed 17 mph    
Visibility 6.6 miles    
Events Rain , Snow    
Averages and records for this station are not official NWS values.
T = Trace of Precipitation, MM = Missing Value Source: Averaged Metar Reports

Daily Weather History Graph

Daily Weather History Graph

Search for Another Location

Airport:

Trip Planner

Search our weather history database for the weather conditions in past years. The results will help you decide how hot, cold, wet, or windy it might be!

Date:

Astronomy

Apr. 12, 2012 Rise Set
Actual Time 6:47 AM MDT 8:29 PM MDT
Civil Twilight 6:12 AM MDT 9:04 PM MDT
Nautical Twilight 5:30 AM MDT 9:47 PM MDT
Astronomical Twilight 4:42 AM MDT 10:35 PM MDT
Moon 2:42 AM MDT (4/12) 11:25 AM MDT (4/12)
Length of Visible Light 14h 51m
Length of Day
13h 41m
Waning Gibbous, 58% of the Moon is Illuminated
Apr 12
Waning Gibbous
Apr 13
Last Quarter
Apr 21
New
Apr 29
First Quarter
May 5
Full

Hourly Weather History & Observations

Time (MDT) Temp. Windchill Dew Point Humidity Pressure Visibility Wind Dir Wind Speed Gust Speed Precip Events Conditions
5:00 AM 30.2 °F 23.4 °F 23.0 °F 75% 29.60 in 15.0 mi WNW 6.9 mph - N/A   Mostly Cloudy
6:00 AM 32 °F - 24 °F 62% 29.60 in 15 mi NNW 8.1 mph - -   Scattered Clouds
6:00 AM 32.0 °F 24.8 °F 24.8 °F 75% 29.60 in 15.0 mi NNW 8.1 mph - N/A   Mostly Cloudy
7:00 AM 32.0 °F 25.6 °F 24.8 °F 75% 29.60 in 15.0 mi NW 6.9 mph - N/A   Overcast
8:00 AM 33.8 °F 27.7 °F 26.6 °F 75% 29.59 in 15.0 mi NW 6.9 mph - N/A   Overcast
9:00 AM 37.4 °F 32.1 °F 26.6 °F 65% 29.60 in 20.0 mi NW 6.9 mph - N/A   Overcast
11:00 AM 42.8 °F 36.6 °F 28.4 °F 57% 29.57 in 20.0 mi NNW 11.5 mph - N/A   Overcast
12:00 PM 46 °F - 29 °F 38% 29.58 in 15 mi NNW 10.4 mph - -   Overcast
12:00 PM 46.4 °F 41.9 °F 28.4 °F 50% 29.58 in 15.0 mi NNW 9.2 mph - N/A   Overcast
12:25 PM - - - N/A% - 12.0 mi NNW 12.7 mph - N/A Rain Light Rain
12:48 PM - - - N/A% - 12.0 mi NNE 12.7 mph - N/A Rain Light Rain
1:00 PM 42.8 °F 36.6 °F 28.4 °F 57% 29.60 in 12.0 mi NNE 11.5 mph 17.3 mph N/A   Overcast
1:50 PM - - - N/A% - 3.0 mi North 8.1 mph - N/A Rain Rain
2:00 PM 37.4 °F 32.1 °F 33.8 °F 87% 29.61 in 3.0 mi North 6.9 mph - N/A Rain Rain
2:20 PM - - - N/A% - 3.0 mi North 6.9 mph - N/A Rain Rain
2:45 PM - - - N/A% - 2.0 mi North 11.5 mph - N/A Rain Light Rain
3:00 PM 33.8 °F 25.3 °F 30.2 °F 87% 29.65 in 2.0 mi North 11.5 mph - N/A Rain Light Rain
3:14 PM - - - N/A% - 2.0 mi NNW 12.7 mph - N/A Rain Light Rain
4:00 PM 32.0 °F 27.5 °F 30.2 °F 93% 29.67 in 2.0 mi NW 4.6 mph - N/A Snow Light Snow
4:19 PM - - - N/A% - 1.5 mi NW 4.6 mph - N/A   Unknown
4:53 PM - - - N/A% - 1.0 mi NNW 5.8 mph - N/A   Unknown
5:00 PM 32.0 °F 26.4 °F 30.2 °F 93% 29.66 in 1.0 mi NNW 5.8 mph - N/A Snow Light Snow
5:07 PM - - - N/A% - 0.5 mi NNW 6.9 mph - N/A   Unknown
6:00 PM 32 °F - 30 °F 91% 29.66 in 0 mi NNW 8.1 mph - - Snow Snow
6:00 PM 32.0 °F 25.6 °F 30.2 °F 93% 29.66 in 0.5 mi NNW 6.9 mph - N/A Snow Snow
6:23 PM - - - N/A% - 0.2 mi NW 11.5 mph - N/A   Unknown
7:00 PM 32.0 °F 23.0 °F 30.2 °F 93% 29.65 in 0.2 mi NW 11.5 mph - N/A Snow Heavy Snow
8:00 PM 32.0 °F 25.6 °F 30.2 °F 93% 29.67 in 0.2 mi NW 6.9 mph - N/A Snow Heavy Snow
9:00 PM 32.0 °F 23.0 °F 30.2 °F 93% 29.66 in 0.4 mi NNW 11.5 mph - N/A Snow Snow
9:40 PM - - - N/A% - 0.5 mi WNW 11.5 mph - N/A   Unknown
10:00 PM 32.0 °F 23.6 °F 30.2 °F 93% 29.54 in 1.0 mi NW 10.4 mph - N/A Snow Light Snow